User: anonymous   Login
Location: Marseilles
(40.7010°N, 83.3930°W)
Time: 12:33:00
(UTC-04:00)
Language:

Cosmos 1459 Rocket - Orbit

View from above orbital plane
View from above orbital plane
View from above satellite
View from above satellite

Ground track
Ground track

The orbit data is extracted from the following two-line orbital elements,

1 14059U 83042B   18109.77299125 +.00000055 +00000-0 +37900-4 0  9990
2 14059 082.9749 194.3637 0043985 124.9584 235.5718 13.78622518757738
Epoch (UTC): 19 April 2018 18:33:06
Eccentricity: 0.0043985
inclination: 82.9749°
perigee height: 936 km
apogee height: 1001 km
right ascension of ascending node: 194.3637°
argument of perigee: 124.9584°
revolutions per day: 13.78622518
mean anomaly at epoch: 235.5718°
orbit number at epoch: 75773

The dashed part of the orbit path shows where the satellite is in the earth's shadow,  

DLR